Temperature
13 14 14 15 12 10 11 12 12 13 14 15 15 16 15 15 15 16 16 16 16 16 16 16 16 16 16 16 16 16 16 16 15 15 15 15 15 15 15 15 15 15 15 15 15 15 15 15 14
13 14 14 13 10 10 11 11 12 13 14 15 15 15 15 15 16 16 16 16 16 16 16 15 15 16 15 16 16 16 15 16 15 15 15 15 15 15 15 15 15 15 15 15 15 15 15 15 14
13 13 13 9 9 10 12 12 12 13 14 14 14 14 14 15 15 16 16 16 15 15 15 15 15 15 15 15 15 15 15 15 15 15 15 15 15 15 15 15 15 15 15 15 14 14 15 14 14
13 13 12 9 10 10 11 12 12 12 13 14 14 13 14 14 15 15 15 15 15 15 15 15 15 15 15 15 15 15 15 15 15 15 15 15 15 15 15 15 15 15 15 15 14 14 14 14 14
12 12 9 9 9 10 10 11 12 11 12 13 13 12 13 14 14 15 15 14 15 15 15 15 15 15 15 15 15 15 15 15 15 15 15 15 15 15 15 15 15 15 14 14 14 14 14 14 14
12 9 8 9 9 10 10 12 12 11 11 12 12 12 13 14 14 14 14 14 14 14 14 14 14 14 15 15 15 15 15 15 14 14 15 15 15 15 15 15 15 14 14 14 14 14 14 14 14
10 7 8 9 9 10 11 12 11 11 11 12 12 11 13 13 13 13 13 13 13 14 14 14 14 14 14 14 14 14 14 14 14 14 14 14 14 14 14 15 14 14 14 14 14 14 14 14 14
10 7 8 8 9 10 11 11 12 11 11 12 12 11 12 13 13 13 13 13 13 13 13 14 14 14 14 14 14 14 14 14 14 14 14 14 14 14 14 14 14 14 14 14 14 14 14 14 14
10 7 8 8 9 9 10 10 11 11 11 11 12 12 12 12 12 12 12 13 13 13 13 13 13 13 13 13 13 14 14 14 14 14 14 14 14 14 14 14 14 14 14 14 14 14 14 14 13
9 7 8 9 9 9 10 10 10 10 10 10 11 12 12 12 12 12 12 12 12 13 13 13 13 13 13 13 13 13 14 14 14 14 14 14 14 14 14 14 14 14 14 14 13 13 13 13 13
8 8 8 9 10 10 9 10 10 10 9 10 11 12 12 12 12 12 12 12 12 12 12 12 12 13 13 13 13 13 13 13 13 14 14 14 14 14 14 14 14 13 13 13 13 13 13 13 13
8 8 9 9 9 9 9 9 9 9 10 11 11 12 12 11 11 11 11 12 12 12 12 12 12 12 12 13 13 13 13 13 13 13 13 13 13 13 13 13 13 13 13 13 13 13 13 13 13
8 8 9 9 9 9 9 9 9 9 11 11 11 11 11 11 11 11 11 11 12 12 12 12 12 12 12 12 12 12 13 13 13 13 13 13 13 13 13 13 13 13 13 13 13 13 13 13 12
8 8 8 8 8 8 8 8 8 9 10 11 11 11 11 11 11 11 11 11 11 11 11 11 11 11 12 12 12 12 12 12 12 12 13 13 13 13 13 13 13 13 13 13 12 12 12 12 12
8 8 8 8 8 8 8 8 8 10 10 10 10 10 10 11 11 11 11 11 11 11 11 11 11 11 11 12 12 12 12 12 12 12 12 12 12 12 12 12 13 12 12 12 12 12 12 12 12
8 7 7 8 8 8 8 8 9 10 10 9 10 10 10 10 10 11 11 11 11 11 11 11 11 11 11 11 11 12 12 12 12 12 12 12 12 12 12 12 12 12 12 12 12 12 12 12 11
7 7 7 8 8 8 8 7 8 9 9 9 9 10 10 10 10 10 10 11 11 11 11 11 11 11 11 11 11 11 11 11 11 11 11 11 11 12 12 12 12 12 12 12 11 11 11 11 11
7 7 7 7 8 8 7 7 8 9 9 9 9 9 9 10 10 10 10 10 10 10 10 10 10 10 10 10 10 10 11 11 11 11 11 11 11 11 11 11 11 11 11 11 11 11 11 11 11
7 7 7 7 8 8 7 7 8 8 8 8 8 9 9 10 10 10 10 10 10 10 10 10 10 10 10 10 10 10 10 10 10 10 11 11 11 11 11 11 11 11 11 11 11 11 11 10 10
7 7 7 7 8 8 7 7 8 8 8 8 8 8 9 9 9 10 10 10 10 10 10 10 10 10 10 10 10 10 10 10 10 10 10 10 10 10 10 10 10 10 10 10 10 10 10 10 10
7 7 7 7 7 7 7 7 8 8 8 8 8 8 9 9 9 9 9 10 10 9 9 10 10 10 10 10 10 10 10 10 10 10 10 10 10 10 10 10 10 10 10 10 10 10 10 9 9
7 8 7 7 7 6 7 7 8 7 7 7 8 8 9 9 9 9 9 9 9 9 9 9 9 9 9 9 9 10 10 10 10 10 9 9 10 10 9 9 9 9 9 9 9 9 9 9 9
7 7 7 7 6 6 6 6 7 7 7 8 7 8 8 9 9 9 9 9 9 9 9 9 9 9 9 9 9 9 9 10 9 9 9 9 9 9 9 9 9 9 9 9 9 9 9 9 8
7 7 7 6 6 7 6 6 7 6 7 8 7 8 8 9 9 9 9 9 9 9 9 9 9 9 9 9 9 9 9 9 9 9 9 9 9 9 9 9 9 9 8 8 8 9 8 8 8
7 7 6 7 6 7 6 6 6 7 7 7 7 8 8 9 9 9 9 9 9 9 9 9 9 9 9 9 9 9 9 9 9 9 8 8 8 8 8 8 8 8 8 8 8 8 8 8 8
7 7 7 7 7 6 5 6 7 7 7 7 8 8 8 8 9 9 9 9 9 9 9 9 9 8 9 9 9 8 8 8 8 8 8 8 8 8 8 8 8 8 8 8 8 8 8 8 7
7 6 6 5 5 5 6 6 6 7 6 6 7 8 8 8 9 9 9 9 9 9 9 9 8 8 8 8 8 8 8 8 8 8 8 7 7 7 7 7 7 7 7 7 7 7 7 7 7
7 5 4 6 7 7 7 6 6 7 7 6 6 7 8 8 8 9 9 9 9 9 9 8 8 8 8 8 8 8 8 8 7 7 7 7 7 7 7 7 7 7 7 7 7 7 7 7 7
6 6 5 4 5 6 6 7 7 7 7 6 6 7 8 8 8 8 8 9 8 8 8 8 8 8 8 8 8 8 7 7 7 7 7 7 7 7 7 7 7 7 7 7 7 6 6 6 6
6 6 5 6 5 4 4 6 7 6 6 6 6 7 8 8 8 8 8 8 8 8 8 8 8 8 8 8 7 7 7 7 7 7 7 6 6 6 6 6 6 6 6 6 6 6 6 6 6
Wind_Speed
10 6 3 4 4 2 3 4 3 2 2 2 1 2 4 4 4 3 1 3 4 5 6 8 9 10 10 10 10 10 9 9 9 9 9 9 9 8 8 8 7 7 7 7 6 6 6 6 6
5 3 5 4 4 3 5 4 4 4 3 1 2 1 1 2 1 0 1 2 4 5 6 7 9 9 9 10 10 10 10 9 9 9 9 8 8 8 7 7 6 6 6 6 6 6 6 6 6
3 4 4 4 3 6 5 3 4 3 2 1 1 1 1 2 1 1 1 3 4 4 5 7 9 9 9 9 9 9 10 9 9 9 9 9 8 8 7 7 7 6 6 6 6 6 6 5 5
3 5 4 3 5 5 4 2 1 2 3 2 1 2 3 2 1 2 2 4 5 4 5 7 8 8 9 9 9 9 8 9 9 9 8 8 8 7 7 7 6 6 5 6 6 6 6 5 5
4 4 3 1 5 4 4 3 1 1 2 1 0 2 3 3 2 1 4 5 5 4 4 7 8 7 8 8 9 9 8 8 9 9 8 8 7 7 7 6 6 6 6 6 5 5 5 5 5
4 4 3 4 5 4 4 3 1 2 2 2 1 2 3 2 2 1 3 5 4 4 3 6 7 7 8 8 8 9 8 7 7 8 8 8 7 7 6 6 6 6 6 5 5 5 5 5 5
4 4 3 3 3 4 3 2 3 3 3 4 2 2 3 2 1 1 2 3 3 3 3 4 6 6 7 7 7 8 8 7 7 7 7 8 7 7 6 6 5 6 5 5 5 5 5 5 5
4 4 2 2 4 5 2 1 2 3 4 2 3 4 4 3 1 2 3 3 4 3 3 3 5 5 5 6 7 8 7 7 6 6 7 7 7 7 6 5 5 5 5 5 5 4 4 5 5
3 3 4 5 5 4 2 1 2 1 2 2 3 4 4 1 1 3 2 2 3 3 2 3 4 4 5 5 6 7 7 7 6 7 6 7 6 6 5 5 5 5 4 4 4 4 4 5 6
3 3 6 4 3 3 2 3 3 2 3 3 3 3 2 2 2 4 4 5 4 4 3 3 4 4 4 4 5 5 5 6 6 6 6 6 6 5 5 5 5 4 4 4 4 5 5 5 5
2 4 3 4 4 3 3 3 2 3 6 7 6 5 3 3 3 4 6 6 5 4 4 4 4 4 4 4 4 4 4 5 5 6 6 6 6 5 5 5 5 5 5 5 5 6 6 5 5
2 4 4 3 3 2 4 3 3 6 9 6 6 5 5 6 7 7 6 5 4 4 3 3 4 4 4 4 4 3 4 4 4 4 6 6 4 4 4 4 4 5 4 5 5 5 5 5 5
3 4 4 5 6 5 5 6 5 9 10 6 4 4 6 7 7 6 6 4 3 4 4 3 3 3 3 4 3 3 3 3 4 4 5 6 4 3 3 3 4 4 4 4 4 4 4 4 4
3 3 5 5 6 4 5 8 5 10 5 4 4 6 6 7 6 4 4 5 4 4 4 4 4 3 3 3 3 3 4 4 4 4 4 5 5 4 3 3 3 3 3 3 4 3 3 3 3
2 3 5 4 3 2 2 6 8 9 4 5 6 6 6 6 5 5 5 4 4 3 3 4 4 3 3 4 3 4 4 5 4 3 4 4 5 5 5 3 2 3 3 4 4 4 4 3 3
1 1 3 4 2 2 2 8 8 4 4 6 6 5 5 5 4 4 3 3 3 3 3 3 3 4 3 3 3 4 5 5 4 4 4 4 4 5 5 3 2 3 4 4 3 2 2 2 2
2 2 4 6 2 2 3 8 7 3 4 6 6 5 4 4 3 3 2 3 3 3 3 2 2 4 3 3 4 4 4 4 4 5 4 4 4 4 5 4 3 4 4 3 2 2 2 2 1
3 3 4 5 4 1 5 10 10 5 5 6 6 4 4 4 4 3 3 3 3 3 3 2 3 3 4 3 3 3 3 3 4 4 4 4 4 4 5 4 4 4 3 2 2 2 2 1 1
3 4 7 7 4 3 7 11 12 7 5 6 6 5 5 5 4 2 3 3 4 3 3 2 2 4 4 3 3 2 2 2 2 2 4 4 4 4 4 3 3 3 2 2 3 2 3 2 1
4 6 7 7 4 3 6 10 10 7 6 7 7 6 5 4 2 2 3 4 4 4 3 3 3 4 4 3 2 2 2 1 1 2 2 3 4 4 3 3 2 3 3 3 2 3 2 1 1
5 6 6 5 5 3 4 7 6 5 4 4 5 5 4 6 6 4 4 4 4 4 4 3 4 4 4 4 3 3 3 2 2 2 1 1 3 3 3 3 3 3 2 3 2 3 3 2 1
6 5 5 5 3 4 1 5 7 4 4 5 5 5 5 5 5 5 5 5 5 5 3 3 4 4 4 4 5 4 2 2 2 1 1 1 2 3 3 3 3 3 2 3 2 2 2 3 2
6 3 3 3 3 4 1 3 8 2 4 6 6 6 6 6 5 5 6 6 4 4 3 3 3 4 4 4 5 4 2 1 2 2 2 1 1 1 2 3 3 3 2 3 3 2 2 2 3
3 2 1 1 1 3 3 4 7 5 6 5 4 5 6 5 5 5 4 4 3 3 2 3 4 4 4 4 4 4 4 3 3 2 2 1 0 0 0 2 2 2 2 3 3 3 3 3 3
2 3 3 4 3 5 1 3 9 7 6 5 6 6 5 5 5 5 4 4 4 4 3 4 5 4 4 4 4 4 4 4 5 4 3 2 1 1 1 1 1 1 2 3 3 3 3 3 3
2 4 4 3 4 5 2 6 8 5 4 4 4 3 3 4 5 5 5 5 5 5 4 5 6 5 5 4 4 4 4 3 2 3 3 3 2 2 2 1 1 2 2 2 3 2 3 3 4
3 3 4 3 1 4 6 7 8 3 2 2 2 1 2 3 4 5 4 4 5 5 6 6 6 5 4 4 3 3 4 3 3 3 2 2 2 2 2 2 1 1 2 2 2 3 3 3 4
3 6 4 3 1 4 6 5 5 6 5 3 2 3 3 3 3 3 4 4 4 4 4 5 5 5 4 4 4 3 3 4 3 3 3 2 2 2 2 2 2 2 2 2 3 2 3 3 4
4 3 3 3 3 3 4 7 5 6 5 5 5 5 5 4 4 4 4 3 3 3 4 4 4 3 3 3 3 3 3 2 3 3 3 2 2 2 3 3 3 3 3 3 3 3 3 4 4
5 6 7 4 4 4 3 8 5 5 4 4 4 3 3 4 4 4 4 3 2 2 3 4 4 4 4 3 3 3 3 3 3 3 3 2 3 2 3 3 3 3 3 3 4 4 4 4 5
Wind_Direction
348 357 46 55 64 65 226 234 216 243 238 265 260 190 172 174 176 216 319 122 120 148 163 160 156 155 153 149 142 137 134 129 128 125 122 122 121 118 114 111 108 106 102 102 101 99 96 94 91
349 14 51 64 118 197 249 234 222 229 227 319 357 42 118 238 259 99 67 125 129 143 152 155 153 148 151 147 143 145 141 134 130 128 125 121 120 117 115 111 108 106 104 100 99 96 94 93 88
16 45 80 91 158 196 214 225 222 273 281 11 359 351 215 243 281 202 225 153 127 130 139 151 152 148 149 147 146 147 147 141 137 131 126 121 117 117 117 112 105 102 100 95 94 94 90 89 89
57 47 58 100 215 224 212 223 239 308 329 14 84 305 289 287 267 225 163 146 134 133 133 143 144 147 148 150 148 146 147 147 142 136 131 125 120 117 120 116 110 103 101 98 92 91 90 87 87
57 79 83 250 241 243 249 260 249 253 274 289 130 253 271 319 346 120 149 150 146 144 136 148 141 141 144 146 146 138 137 146 146 141 138 132 127 121 117 116 114 108 101 100 95 89 88 90 89
62 76 130 227 245 258 255 252 246 246 261 284 205 225 251 326 32 92 150 156 149 146 135 146 142 138 140 142 144 141 132 133 146 146 143 136 129 123 118 117 115 112 109 104 101 95 90 92 91
113 116 183 218 248 263 249 226 204 222 248 243 209 216 272 299 340 109 147 150 137 129 124 125 132 133 133 134 138 137 135 131 130 144 145 136 129 125 121 119 116 111 108 103 99 96 91 85 90
122 122 177 225 225 249 257 275 239 205 238 247 180 201 247 261 325 99 117 131 135 130 125 110 114 118 122 126 133 128 129 128 125 123 127 128 123 120 117 113 111 111 105 99 91 88 87 81 78
100 111 209 217 211 243 253 269 286 274 222 257 243 237 257 197 124 115 123 131 150 143 143 132 117 109 113 119 125 123 124 128 122 114 120 112 103 100 101 105 105 108 104 94 88 80 83 79 69
112 183 222 216 209 226 255 236 250 284 270 261 270 278 290 176 169 180 185 184 182 180 176 164 144 125 116 120 111 112 116 121 115 114 113 115 108 101 92 88 88 97 95 88 84 79 76 74 67
160 202 239 259 247 246 268 273 247 221 252 232 230 239 228 221 210 206 210 195 194 190 184 173 159 133 123 113 116 112 111 110 108 113 112 111 104 94 84 75 67 71 79 74 71 70 65 68 69
205 244 237 258 265 254 249 253 261 233 244 247 234 220 214 220 219 212 216 214 188 185 184 164 163 142 128 121 121 120 112 108 105 113 118 118 110 96 87 76 69 67 72 73 69 72 68 67 70
228 256 258 256 273 264 264 253 252 260 262 268 246 222 227 231 231 226 213 212 197 190 185 164 159 157 136 123 126 119 112 113 117 120 120 124 122 124 107 88 73 67 72 78 76 76 75 69 66
242 260 272 272 262 265 255 268 247 261 261 251 233 230 234 231 228 226 216 206 198 196 191 168 166 163 142 136 133 126 117 114 105 107 118 125 126 127 122 108 87 65 73 90 91 91 90 73 71
267 292 301 287 262 253 256 284 248 256 243 240 243 240 236 235 226 226 224 213 202 196 191 174 165 144 147 137 134 124 120 115 105 105 110 112 122 129 126 120 102 75 78 94 91 84 82 74 66
339 329 303 293 267 242 176 267 269 260 213 237 242 242 238 236 227 225 217 195 180 168 174 182 156 145 142 134 127 121 117 112 106 108 107 107 114 127 123 124 115 94 86 87 103 93 78 62 49
357 292 281 300 269 214 202 261 279 275 218 238 241 236 238 240 231 214 189 165 155 149 151 159 120 140 135 122 111 108 110 108 111 107 101 100 106 117 122 124 117 105 96 90 102 85 95 86 46
263 273 281 281 296 249 244 263 282 281 238 241 243 231 229 236 230 207 175 148 135 137 140 137 126 126 122 113 103 93 91 92 102 105 106 101 103 109 117 122 118 112 108 96 96 98 79 94 75
236 259 274 274 278 275 261 271 280 277 249 244 247 235 227 234 232 195 164 149 133 138 139 148 140 140 136 130 125 120 112 101 91 100 111 110 111 113 110 118 123 123 128 129 122 115 92 60 40
235 261 271 283 283 254 275 276 273 258 239 231 229 231 226 228 220 199 168 158 162 171 167 173 163 157 153 148 135 123 117 115 108 89 99 113 117 118 116 119 135 135 133 121 114 122 122 77 50
251 238 255 271 316 302 307 299 274 262 246 235 226 222 214 210 205 196 185 181 171 181 187 192 168 161 148 135 111 94 82 78 82 86 88 92 116 122 127 128 129 132 136 145 142 143 140 145 74
262 243 248 269 301 298 344 296 287 265 273 249 235 223 218 214 205 193 187 186 189 192 180 172 167 160 153 146 145 145 154 161 177 149 139 102 119 129 140 143 144 142 139 153 161 150 158 149 159
239 266 245 252 243 290 272 240 284 295 263 257 238 223 220 211 205 198 194 192 190 173 168 169 164 161 158 157 157 158 148 127 111 111 127 114 84 119 140 151 150 153 155 161 160 154 158 163 169
234 346 1 38 73 283 236 201 278 252 235 251 239 226 221 208 207 202 186 168 157 138 153 161 165 165 161 161 162 163 156 147 137 135 154 143 104 79 128 147 152 163 166 174 177 171 169 178 175
79 75 6 350 338 262 237 223 253 257 246 234 236 237 226 201 194 188 171 173 166 162 171 175 168 172 173 171 173 171 167 166 170 174 181 174 181 213 220 164 173 186 188 184 173 169 178 185 186
183 151 165 230 258 286 293 244 257 268 274 266 248 230 217 191 191 194 191 187 182 182 183 179 178 182 177 177 182 173 164 168 180 182 181 189 205 214 196 179 199 206 193 186 175 178 193 189 197
147 179 171 155 260 281 276 283 301 276 285 285 262 217 215 203 189 191 193 196 189 188 191 186 183 181 180 179 175 174 174 176 182 185 185 192 201 200 176 179 191 213 202 190 180 196 204 196 204
156 149 116 146 237 282 292 278 262 274 262 256 249 239 230 213 192 184 185 194 196 193 184 174 176 182 180 176 179 187 191 191 182 179 195 199 200 189 170 185 197 208 209 199 190 205 206 201 214
150 155 153 154 177 196 282 278 231 235 245 230 235 242 227 214 206 196 194 198 190 171 165 173 177 177 176 180 183 183 187 182 171 183 205 208 202 198 199 203 206 216 220 209 201 213 209 213 226
187 188 163 177 232 200 221 271 275 244 256 239 243 257 241 213 206 197 189 179 177 175 179 185 187 187 191 185 183 190 185 174 181 200 212 210 214 216 216 205 209 223 229 218 212 220 215 214 224
Height
1505 1506 1508 1510 1514 1523 1524 1520 1516 1514 1513 1511 1511 1511 1511 1513 1515 1518 1513 1510 1511 1513 1515 1516 1518 1520 1521 1523 1524 1525 1526 1528 1529 1529 1530 1531 1532 1533 1534 1534 1535 1536 1536 1537 1537 1538 1538 1539 1540
1505 1507 1509 1510 1519 1528 1524 1517 1515 1512 1511 1510 1510 1510 1510 1510 1510 1510 1509 1510 1511 1513 1514 1516 1517 1519 1521 1522 1524 1525 1526 1527 1528 1529 1530 1531 1532 1533 1533 1534 1535 1535 1536 1537 1537 1538 1538 1539 1539
1506 1507 1509 1513 1521 1522 1518 1513 1512 1511 1510 1510 1510 1509 1510 1509 1509 1509 1509 1510 1511 1513 1514 1515 1517 1518 1520 1521 1523 1524 1526 1527 1528 1529 1530 1531 1532 1532 1533 1534 1534 1535 1536 1536 1537 1537 1538 1538 1539
1506 1508 1510 1517 1518 1516 1513 1511 1510 1510 1510 1509 1509 1509 1509 1509 1509 1509 1508 1509 1510 1512 1513 1514 1516 1518 1519 1521 1522 1523 1525 1526 1527 1528 1529 1530 1531 1532 1533 1533 1534 1534 1535 1536 1536 1537 1537 1538 1538
1506 1508 1515 1520 1517 1513 1510 1509 1509 1509 1509 1509 1509 1508 1507 1508 1507 1507 1508 1508 1509 1511 1513 1514 1515 1516 1518 1520 1521 1523 1524 1525 1526 1528 1529 1530 1531 1531 1532 1533 1533 1534 1534 1535 1535 1536 1537 1537 1538
1507 1509 1520 1520 1515 1512 1509 1508 1508 1508 1508 1508 1508 1507 1506 1506 1506 1506 1507 1508 1509 1510 1512 1513 1514 1516 1517 1519 1520 1522 1523 1524 1525 1526 1528 1529 1530 1531 1531 1532 1533 1533 1534 1534 1535 1535 1536 1536 1537
1508 1513 1517 1517 1515 1512 1508 1507 1507 1507 1507 1507 1507 1506 1504 1505 1505 1505 1506 1507 1508 1509 1511 1512 1514 1515 1516 1518 1519 1520 1522 1523 1524 1525 1527 1528 1529 1530 1531 1531 1532 1533 1533 1534 1534 1535 1535 1535 1536
1507 1513 1516 1516 1514 1510 1506 1506 1505 1505 1505 1505 1506 1505 1503 1503 1504 1504 1505 1506 1507 1508 1509 1511 1512 1513 1515 1516 1518 1519 1520 1522 1523 1524 1525 1527 1528 1529 1530 1530 1531 1532 1532 1533 1533 1534 1534 1535 1535
1508 1515 1515 1512 1511 1508 1505 1505 1504 1504 1503 1503 1503 1502 1502 1502 1502 1503 1503 1504 1505 1506 1507 1509 1510 1512 1513 1515 1516 1518 1519 1520 1522 1523 1524 1525 1527 1528 1529 1529 1530 1531 1532 1532 1532 1533 1533 1534 1534
1508 1514 1509 1506 1505 1504 1504 1503 1503 1503 1502 1500 1500 1500 1500 1500 1501 1501 1501 1501 1502 1503 1505 1507 1508 1510 1511 1513 1515 1516 1518 1519 1520 1521 1522 1524 1525 1526 1527 1528 1529 1530 1531 1531 1532 1532 1532 1533 1533
1507 1508 1505 1504 1503 1502 1502 1502 1502 1501 1499 1497 1496 1496 1497 1498 1498 1499 1498 1499 1500 1501 1503 1505 1506 1508 1509 1511 1513 1514 1516 1517 1518 1520 1521 1522 1523 1525 1526 1527 1528 1529 1529 1530 1531 1531 1531 1532 1532
1507 1505 1504 1502 1502 1501 1501 1500 1500 1497 1495 1494 1494 1494 1494 1495 1495 1495 1496 1497 1498 1499 1500 1503 1504 1505 1508 1509 1511 1513 1514 1515 1517 1518 1519 1521 1522 1523 1524 1525 1526 1527 1528 1529 1529 1530 1530 1531 1531
1506 1503 1502 1501 1500 1499 1499 1497 1497 1493 1491 1491 1491 1491 1491 1492 1492 1493 1494 1495 1495 1496 1498 1500 1502 1503 1505 1507 1509 1511 1512 1514 1515 1516 1518 1519 1520 1521 1522 1524 1524 1525 1526 1527 1528 1529 1529 1530 1530
1503 1502 1500 1498 1497 1497 1496 1494 1495 1488 1489 1488 1488 1488 1488 1489 1489 1490 1490 1491 1493 1494 1496 1498 1500 1501 1504 1506 1508 1509 1510 1512 1513 1515 1516 1517 1518 1519 1521 1522 1523 1524 1525 1526 1526 1527 1528 1528 1529
1502 1502 1499 1496 1495 1495 1496 1493 1489 1485 1487 1486 1486 1486 1486 1486 1486 1487 1488 1489 1490 1493 1495 1496 1498 1500 1502 1504 1506 1508 1509 1510 1511 1513 1514 1515 1517 1518 1519 1520 1521 1522 1523 1524 1525 1526 1527 1527 1528
1502 1503 1502 1496 1494 1493 1497 1493 1485 1484 1484 1483 1483 1483 1483 1483 1484 1485 1486 1487 1489 1491 1492 1494 1495 1498 1500 1502 1504 1506 1507 1509 1510 1511 1513 1514 1515 1516 1517 1518 1519 1521 1522 1523 1524 1524 1525 1526 1526
1505 1505 1502 1497 1493 1492 1494 1490 1483 1482 1482 1481 1480 1480 1480 1481 1482 1483 1484 1485 1487 1489 1491 1492 1493 1495 1498 1501 1503 1504 1506 1507 1508 1509 1511 1512 1513 1514 1515 1516 1517 1519 1520 1521 1522 1522 1523 1524 1524
1506 1504 1501 1498 1492 1492 1492 1488 1481 1480 1480 1478 1477 1477 1478 1478 1480 1481 1482 1484 1486 1488 1490 1491 1492 1494 1496 1499 1501 1503 1504 1505 1507 1508 1509 1510 1511 1512 1513 1514 1515 1517 1517 1519 1520 1520 1521 1522 1522
1503 1503 1501 1496 1492 1492 1489 1485 1479 1477 1477 1476 1475 1475 1475 1476 1478 1480 1481 1482 1484 1486 1487 1489 1491 1492 1494 1496 1498 1500 1502 1503 1505 1506 1507 1508 1509 1510 1511 1512 1513 1515 1516 1516 1517 1518 1519 1520 1521
1502 1502 1499 1494 1490 1490 1488 1483 1476 1474 1473 1472 1472 1472 1473 1474 1476 1477 1479 1480 1482 1484 1486 1488 1489 1491 1492 1495 1497 1499 1501 1502 1503 1504 1505 1507 1508 1508 1509 1510 1511 1512 1514 1514 1515 1516 1517 1518 1518
1499 1500 1497 1495 1492 1489 1488 1481 1475 1470 1470 1469 1469 1469 1470 1472 1473 1475 1476 1478 1479 1482 1484 1486 1487 1489 1491 1493 1496 1498 1500 1500 1501 1502 1504 1505 1506 1507 1508 1508 1509 1510 1511 1512 1513 1514 1514 1515 1516
1498 1494 1494 1494 1496 1495 1492 1490 1474 1470 1468 1466 1466 1466 1467 1469 1471 1473 1474 1476 1478 1480 1482 1484 1486 1488 1489 1491 1493 1495 1497 1498 1499 1501 1502 1503 1504 1505 1506 1507 1507 1508 1509 1510 1510 1511 1512 1513 1513
1494 1492 1493 1493 1494 1495 1493 1493 1478 1470 1467 1464 1462 1463 1464 1466 1468 1470 1472 1474 1476 1478 1480 1483 1485 1486 1488 1490 1492 1494 1495 1497 1498 1499 1500 1501 1502 1503 1504 1504 1505 1506 1507 1507 1508 1509 1509 1510 1511
1491 1492 1493 1495 1496 1495 1490 1492 1480 1471 1464 1461 1460 1460 1461 1463 1466 1468 1471 1473 1474 1476 1479 1480 1483 1485 1486 1488 1490 1491 1493 1494 1495 1497 1498 1499 1500 1501 1501 1502 1503 1504 1504 1505 1505 1506 1507 1507 1508
1492 1496 1502 1499 1500 1493 1489 1488 1477 1462 1459 1458 1458 1458 1459 1461 1463 1466 1468 1470 1472 1474 1477 1479 1481 1483 1485 1486 1487 1489 1491 1492 1493 1495 1496 1496 1497 1498 1499 1499 1500 1501 1502 1502 1503 1503 1504 1504 1504
1492 1494 1501 1501 1500 1495 1490 1486 1469 1459 1457 1456 1456 1456 1457 1459 1461 1463 1465 1468 1470 1472 1474 1476 1478 1481 1483 1484 1485 1487 1488 1489 1491 1493 1494 1494 1495 1496 1497 1497 1497 1498 1499 1499 1499 1500 1500 1501 1501
1490 1494 1494 1501 1502 1502 1490 1480 1466 1457 1456 1455 1455 1455 1456 1457 1459 1462 1464 1467 1468 1470 1472 1474 1476 1478 1480 1482 1483 1485 1486 1487 1488 1490 1491 1492 1493 1493 1493 1494 1494 1495 1495 1496 1496 1496 1497 1497 1497
1488 1491 1499 1499 1497 1494 1486 1481 1472 1459 1456 1456 1455 1454 1455 1457 1458 1460 1462 1464 1466 1468 1470 1472 1474 1476 1478 1479 1481 1482 1483 1484 1486 1487 1488 1489 1489 1490 1490 1491 1491 1491 1492 1492 1492 1493 1493 1493 1493
1489 1491 1493 1498 1498 1496 1491 1476 1459 1456 1454 1454 1453 1453 1453 1455 1456 1458 1460 1463 1464 1466 1467 1469 1472 1474 1475 1476 1478 1480 1481 1482 1483 1484 1485 1486 1486 1486 1487 1487 1487 1488 1488 1488 1488 1488 1489 1489 1489
1483 1484 1490 1493 1494 1499 1498 1477 1453 1453 1452 1452 1451 1451 1452 1453 1455 1457 1459 1461 1463 1464 1465 1468 1469 1471 1473 1474 1476 1477 1478 1479 1479 1480 1481 1482 1483 1483 1483 1484 1484 1484 1484 1484 1484 1484 1484 1484 1484